Meteor 1-24 Rocket - Orbit

View from above orbital plane
View from above orbital plane
View from above satellite
View from above satellite

Ground track
Ground track

The orbit data is extracted from the following two-line orbital elements,

1 08800U 76032B   13143.80729707 -.00000052  00000-0 -35929-4 0  7513
2 08800 081.2509 222.1112 0095070 070.5808 079.1051 14.09874417908862
Epoch (UTC): 23 May 2013 19:22:30
Eccentricity: 0.0095070
inclination: 81.2509°
perigee height: 791 km
apogee height: 928 km
right ascension of ascending node: 222.1112°
argument of perigee: 70.5808°
revolutions per day: 14.09874417
mean anomaly at epoch: 79.1051°
orbit number at epoch: 90886

The dashed part of the orbit path shows where the satellite is in the earth's shadow,  

Developed and maintained by Chris Peat, Heavens-Above GmbH. Please read the updated FAQ before sending e-mail. Imprint. DLR